SL-16 DEB, 22620

Orbit data source: Space-Track

SL-16 DEB, 22620 is space debris in LEO originally from a launch on Fri, 26 Mar 1993 UTC launched from the Tyuratam Missile And Space Complex (TTMTR). Debris objects in space refer to the collection of defunct objects orbiting the Earth. Examples of debris include non-operational satellites, rocket bodies, and fragments generated from explosions, collisions, or faulty payload assembly.

Loading next visibility...
Identifier
22620, 1993-016AE
Orbit
LEO
Last TLE update
13 hours ago
Origin
Manufacturer
Unknown
Mission
Spacecraft
Bus & Motor
Unknown
Mass
Unknown
Launch date (UTC)
1993-03-26 (32 years ago)
Launch vehicle
Unknown
Launch site
Tyuratam Missile And Space Complex (TTMTR)
Object type
Payload
Rocket body
Debris
Shape & HBR
Unknown
Radar Cross Section
Medium (>0.1 m² and <1 m²)

Expand to show TLE details & history

TLE from 13 hours ago
0 SL-16 DEB
1 22620U 93016AE  25128.74713610  .00000019  00000-0  52056-4 0  9990
2 22620  71.0056 282.7577 0132270  75.2981  30.3077 13.84084046621577
Epoch: 2025-05-08T17:55Z
Definitive object data (Epoch: 2025-05-08T17:55:52.559Z)
Latitude
65.21923°
Longitude
-80.89926°
Altitude
876.798 km
Speed
7.462 km/s
True Right ascension
03h 39m 31s
True Declination
65° 05' 25"
Sunlit
Object was in daylight at TLE epoch
Visualization TLE readout
Latitude
-36.50138°
Longitude
-19.39869°
Altitude
1,040.88 km
Speed
7.291 km/s
Apparent Right ascension
05h 32m 53s
Apparent Declination
-44° 22' 37"
Sunlit
Object is in daylight
Visualization observer readout
Local Sidereal Time
14:45:40
Azimuth
247.79° W
Elevation
-59.027°
Doppler factor
1
Orbital elements
Apogee altitude
1,044.286 km
Perigee altitude
850.496 km
Semi-major axis
7,325.528 km
Eccentricity
0.013227
Inclination
71.0056°
RAAN
282.7577°
Arg. of periapsis
75.2981°
True anomaly
31.08364°
Mean anomaly
30.3077°
Eccentric anomaly
30.69455°
Mean motion
3.46166 °/min
BSTAR
0.000052056
Orbital period
104 mins
Loading maneuver chart data...
Loading SW <> Apogee altitude chart data...
Loading historical data...
Loading historical data...
Loading historical data...
Loading historical data...
Loading historical data...
Loading historical data...
Loading historical data...

SL-16 DEB Visibility forecast

Observer location: undefined°, undefined°

Span
Click to sort rows by Start time (UTC) header in descending order
Start Az.
Max El. time (UTC)
Max El. Az.
Max El.
End time (UTC)
End Az.
10 mins2025-05-09 10:52:48.510Z170.618° S2025-05-09 10:57:48.510Z106.163° ESE31.87°2025-05-09 11:02:48.510Z39.975° NE
8 mins2025-05-09 12:40:48.510Z252.924° W2025-05-09 12:43:48.510Z294.081° NW26.157°2025-05-09 12:48:48.510Z1.09° NNE
7 mins2025-05-09 20:00:48.510Z17.7° NNE2025-05-09 20:03:48.510Z58.089° ENE21.308°2025-05-09 20:07:48.510Z103.033° ESE
10 mins2025-05-09 21:45:48.510Z324.682° NNW2025-05-09 21:49:48.510Z270.371° WNW39.099°2025-05-09 21:55:48.510Z176.338° S
|